Time,TemperatureF,DewpointF,PressureIn,WindDirection,WindDirectionDegrees,WindSpeedMPH,WindSpeedGustMPH,Humidity,HourlyPrecipIn,Conditions,Clouds,dailyrainin,SolarRadiationWatts/m^2,SoftwareType,DateUTC
2013-05-29 00:01:00,46.0,40.0,-100.00,NNE,20,2.0,11.0,79,0.00,,,0.01,0.000000,,2013-05-29 07:01:00,
2013-05-29 00:11:00,46.0,40.0,-100.00,NNE,20,2.0,11.0,79,0.00,,,0.01,0.000000,,2013-05-29 07:11:00,
2013-05-29 00:34:00,44.0,43.0,-100.00,WNW,290,0.0,5.0,97,0.06,,,0.07,0.000000,,2013-05-29 07:34:00,
2013-05-29 00:42:00,44.0,43.0,-100.00,WNW,290,0.0,5.0,97,0.06,,,0.07,0.000000,,2013-05-29 07:42:00,
2013-05-29 00:52:00,44.0,43.0,-100.00,WNW,290,0.0,5.0,97,0.06,,,0.07,0.000000,,2013-05-29 07:52:00,
2013-05-29 01:02:00,44.0,43.0,-100.00,WNW,290,0.0,5.0,97,0.06,,,0.07,0.000000,,2013-05-29 08:02:00,
2013-05-29 01:11:00,44.0,43.0,-100.00,WNW,290,0.0,5.0,97,0.06,,,0.07,0.000000,,2013-05-29 08:11:00,
2013-05-29 01:32:00,43.0,43.0,-100.00,WNW,290,0.0,2.0,99,0.10,,,0.17,0.000000,,2013-05-29 08:32:00,
2013-05-29 01:42:00,43.0,43.0,-100.00,WNW,290,0.0,2.0,99,0.10,,,0.17,0.000000,,2013-05-29 08:42:00,
2013-05-29 01:52:00,43.0,43.0,-100.00,WNW,290,0.0,2.0,99,0.10,,,0.17,0.000000,,2013-05-29 08:52:00,
2013-05-29 02:01:00,43.0,43.0,-100.00,WNW,290,0.0,2.0,99,0.10,,,0.17,0.000000,,2013-05-29 09:01:00,
2013-05-29 02:11:00,43.0,43.0,-100.00,WNW,290,0.0,2.0,99,0.10,,,0.17,0.000000,,2013-05-29 09:11:00,
2013-05-29 02:42:00,43.0,43.0,-100.00,South,188,0.0,4.0,100,0.11,,,0.27,0.000000,,2013-05-29 09:42:00,
2013-05-29 02:52:00,43.0,43.0,-100.00,South,188,0.0,4.0,100,0.11,,,0.27,0.000000,,2013-05-29 09:52:00,
2013-05-29 03:02:00,43.0,43.0,-100.00,South,188,0.0,4.0,100,0.11,,,0.27,0.000000,,2013-05-29 10:02:00,
2013-05-29 03:12:00,43.0,43.0,-100.00,South,188,0.0,4.0,100,0.11,,,0.27,0.000000,,2013-05-29 10:12:00,
2013-05-29 03:33:00,43.0,43.0,-100.00,SW,232,1.0,3.0,100,0.04,,,0.31,0.000000,,2013-05-29 10:33:00,
2013-05-29 03:42:00,43.0,43.0,-100.00,SW,232,1.0,3.0,100,0.04,,,0.31,0.000000,,2013-05-29 10:42:00,
2013-05-29 03:53:00,43.0,43.0,-100.00,SW,232,1.0,3.0,100,0.04,,,0.31,0.000000,,2013-05-29 10:53:00,
2013-05-29 04:02:00,43.0,43.0,-100.00,SW,232,1.0,3.0,100,0.04,,,0.31,0.000000,,2013-05-29 11:02:00,
2013-05-29 04:11:00,43.0,43.0,-100.00,SW,232,1.0,3.0,100,0.04,,,0.31,0.000000,,2013-05-29 11:11:00,
2013-05-29 04:32:00,43.0,43.0,-100.00,North,0,0.0,3.0,100,0.02,,,-99.99,0.000000,,2013-05-29 11:32:00,
2013-05-29 04:42:00,43.0,43.0,-100.00,North,0,0.0,3.0,100,0.02,,,-99.99,0.000000,,2013-05-29 11:42:00,
2013-05-29 04:52:00,43.0,43.0,-100.00,North,0,0.0,3.0,100,0.02,,,-99.99,0.000000,,2013-05-29 11:52:00,
2013-05-29 05:01:00,43.0,43.0,-100.00,North,0,0.0,3.0,100,0.02,,,-99.99,0.000000,,2013-05-29 12:01:00,
2013-05-29 05:11:00,43.0,43.0,-100.00,North,0,0.0,3.0,100,0.02,,,-99.99,0.000000,,2013-05-29 12:11:00,
2013-05-29 05:42:00,43.0,43.0,-100.00,SSW,206,0.0,3.0,100,0.05,,,0.38,0.000000,,2013-05-29 12:42:00,
2013-05-29 05:52:00,43.0,43.0,-100.00,SSW,206,0.0,3.0,100,0.05,,,0.38,0.000000,,2013-05-29 12:52:00,
2013-05-29 06:01:00,43.0,43.0,-100.00,SSW,206,0.0,3.0,100,0.05,,,0.38,0.000000,,2013-05-29 13:01:00,
2013-05-29 06:11:00,43.0,43.0,-100.00,SSW,206,0.0,3.0,100,0.05,,,0.38,0.000000,,2013-05-29 13:11:00,
2013-05-29 06:32:00,42.0,42.0,-100.00,SSW,208,1.0,15.0,100,0.02,,,0.40,7.000000,,2013-05-29 13:32:00,
2013-05-29 06:42:00,42.0,42.0,-100.00,SSW,208,1.0,15.0,100,0.02,,,0.40,7.000000,,2013-05-29 13:42:00,
2013-05-29 06:53:00,42.0,42.0,-100.00,SSW,208,1.0,15.0,100,0.02,,,0.40,7.000000,,2013-05-29 13:53:00,
2013-05-29 07:01:00,42.0,42.0,-100.00,SSW,208,1.0,15.0,100,0.02,,,0.40,7.000000,,2013-05-29 14:01:00,
2013-05-29 07:11:00,42.0,42.0,-100.00,SSW,208,1.0,15.0,100,0.02,,,0.40,7.000000,,2013-05-29 14:11:00,
2013-05-29 07:32:00,45.0,45.0,-100.00,SSE,154,1.0,5.0,100,0.00,,,0.40,64.000000,,2013-05-29 14:32:00,
2013-05-29 07:42:00,45.0,45.0,-100.00,SSE,154,1.0,5.0,100,0.00,,,0.40,64.000000,,2013-05-29 14:42:00,
2013-05-29 07:52:00,45.0,45.0,-100.00,SSE,154,1.0,5.0,100,0.00,,,0.40,64.000000,,2013-05-29 14:52:00,
2013-05-29 08:01:00,45.0,45.0,-100.00,SSE,154,1.0,5.0,100,0.00,,,0.40,64.000000,,2013-05-29 15:01:00,
2013-05-29 08:11:00,45.0,45.0,-100.00,SSE,154,1.0,5.0,100,0.00,,,0.40,64.000000,,2013-05-29 15:11:00,
2013-05-29 08:33:00,46.0,45.0,-100.00,South,177,2.0,6.0,98,0.04,,,0.44,126.000000,,2013-05-29 15:33:00,
2013-05-29 08:42:00,46.0,45.0,-100.00,South,177,2.0,6.0,98,0.04,,,0.44,126.000000,,2013-05-29 15:42:00,
2013-05-29 08:53:00,46.0,45.0,-100.00,South,177,2.0,6.0,98,0.04,,,0.44,126.000000,,2013-05-29 15:53:00,
2013-05-29 09:03:00,46.0,45.0,-100.00,South,177,2.0,6.0,98,0.04,,,0.44,126.000000,,2013-05-29 16:03:00,
2013-05-29 09:12:00,46.0,45.0,-100.00,South,177,2.0,6.0,98,0.04,,,0.44,126.000000,,2013-05-29 16:12:00,
2013-05-29 09:33:00,45.0,45.0,-100.00,South,188,2.0,5.0,99,0.20,,,0.64,74.000000,,2013-05-29 16:33:00,
2013-05-29 09:42:00,45.0,45.0,-100.00,South,188,2.0,5.0,99,0.20,,,0.64,74.000000,,2013-05-29 16:42:00,
2013-05-29 09:52:00,45.0,45.0,-100.00,South,188,2.0,5.0,99,0.20,,,0.64,74.000000,,2013-05-29 16:52:00,
2013-05-29 10:02:00,45.0,45.0,-100.00,South,188,2.0,5.0,99,0.20,,,0.64,74.000000,,2013-05-29 17:02:00,
2013-05-29 10:12:00,45.0,45.0,-100.00,South,188,2.0,5.0,99,0.20,,,0.64,74.000000,,2013-05-29 17:12:00,
2013-05-29 10:32:00,47.0,45.0,-100.00,SW,220,6.0,26.0,92,0.03,,,0.67,305.000000,,2013-05-29 17:32:00,
2013-05-29 10:43:00,47.0,45.0,-100.00,SW,220,6.0,26.0,92,0.03,,,0.67,305.000000,,2013-05-29 17:43:00,
2013-05-29 10:52:00,47.0,45.0,-100.00,SW,220,6.0,26.0,92,0.03,,,0.67,305.000000,,2013-05-29 17:52:00,
2013-05-29 11:01:00,47.0,45.0,-100.00,SW,220,6.0,26.0,92,0.03,,,0.67,305.000000,,2013-05-29 18:01:00,
2013-05-29 11:13:00,47.0,45.0,-100.00,SW,220,6.0,26.0,92,0.03,,,0.67,305.000000,,2013-05-29 18:13:00,
2013-05-29 11:42:00,50.0,44.0,-100.00,SW,222,10.0,25.0,79,0.00,,,0.67,603.000000,,2013-05-29 18:42:00,
2013-05-29 11:52:00,50.0,44.0,-100.00,SW,222,10.0,25.0,79,0.00,,,0.67,603.000000,,2013-05-29 18:52:00,
2013-05-29 12:01:00,50.0,44.0,-100.00,SW,222,10.0,25.0,79,0.00,,,0.67,603.000000,,2013-05-29 19:01:00,
2013-05-29 12:11:00,50.0,44.0,-100.00,SW,222,10.0,25.0,79,0.00,,,0.67,603.000000,,2013-05-29 19:11:00,
2013-05-29 12:44:00,54.0,44.0,-100.00,SW,218,7.0,24.0,68,0.00,,,0.67,848.000000,,2013-05-29 19:44:00,
2013-05-29 12:53:00,54.0,44.0,-100.00,SW,218,7.0,24.0,68,0.00,,,0.67,848.000000,,2013-05-29 19:53:00,
2013-05-29 13:02:00,54.0,44.0,-100.00,SW,218,7.0,24.0,68,0.00,,,0.67,848.000000,,2013-05-29 20:02:00,
2013-05-29 13:11:00,54.0,44.0,-100.00,SW,218,7.0,24.0,68,0.00,,,0.67,848.000000,,2013-05-29 20:11:00,
2013-05-29 13:33:00,55.0,43.0,-100.00,SW,232,9.0,26.0,63,0.00,,,0.67,1018.000000,,2013-05-29 20:33:00,
2013-05-29 13:42:00,55.0,43.0,-100.00,SW,232,9.0,26.0,63,0.00,,,0.67,1018.000000,,2013-05-29 20:42:00,
2013-05-29 13:52:00,55.0,43.0,-100.00,SW,232,9.0,26.0,63,0.00,,,0.67,1018.000000,,2013-05-29 20:52:00,
2013-05-29 14:02:00,55.0,43.0,-100.00,SW,232,9.0,26.0,63,0.00,,,0.67,1018.000000,,2013-05-29 21:02:00,
2013-05-29 14:12:00,55.0,43.0,-100.00,SW,232,9.0,26.0,63,0.00,,,0.67,1018.000000,,2013-05-29 21:12:00,
2013-05-29 14:44:00,53.0,42.0,-100.00,SW,221,8.0,25.0,66,0.00,,,0.67,990.000000,,2013-05-29 21:44:00,
2013-05-29 14:53:00,53.0,42.0,-100.00,SW,221,8.0,25.0,66,0.00,,,0.67,990.000000,,2013-05-29 21:53:00,
2013-05-29 15:03:00,53.0,42.0,-100.00,SW,221,8.0,25.0,66,0.00,,,0.67,990.000000,,2013-05-29 22:03:00,
2013-05-29 15:12:00,53.0,42.0,-100.00,SW,221,8.0,25.0,66,0.00,,,0.67,990.000000,,2013-05-29 22:12:00,
2013-05-29 15:34:00,56.0,41.0,-100.00,SW,214,7.0,21.0,57,0.00,,,0.67,873.000000,,2013-05-29 22:34:00,
2013-05-29 15:42:00,56.0,41.0,-100.00,SW,214,7.0,21.0,57,0.00,,,0.67,873.000000,,2013-05-29 22:42:00,
2013-05-29 15:53:00,56.0,41.0,-100.00,SW,214,7.0,21.0,57,0.00,,,0.67,873.000000,,2013-05-29 22:53:00,
2013-05-29 16:02:00,56.0,41.0,-100.00,SW,214,7.0,21.0,57,0.00,,,0.67,873.000000,,2013-05-29 23:02:00,
2013-05-29 16:12:00,56.0,41.0,-100.00,SW,214,7.0,21.0,57,0.00,,,0.67,873.000000,,2013-05-29 23:12:00,
2013-05-29 16:33:00,53.0,44.0,-100.00,SSW,206,4.0,19.0,72,0.01,,,0.68,554.000000,,2013-05-29 23:33:00,
2013-05-29 16:42:00,53.0,44.0,-100.00,SSW,206,4.0,19.0,72,0.01,,,0.68,554.000000,,2013-05-29 23:42:00,
2013-05-29 16:53:00,53.0,44.0,-100.00,SSW,206,4.0,19.0,72,0.01,,,0.68,554.000000,,2013-05-29 23:53:00,
2013-05-29 17:01:00,53.0,44.0,-100.00,SSW,206,4.0,19.0,72,0.01,,,0.68,554.000000,,2013-05-30 00:01:00,
2013-05-29 17:11:00,53.0,44.0,-100.00,SSW,206,4.0,19.0,72,0.01,,,0.68,554.000000,,2013-05-30 00:11:00,
2013-05-29 18:32:00,50.0,41.0,-100.00,SW,214,3.0,20.0,71,-99.99,,,0.68,301.000000,,2013-05-30 01:32:00,
2013-05-29 18:42:00,50.0,41.0,-100.00,SW,214,3.0,20.0,71,-99.99,,,0.68,301.000000,,2013-05-30 01:42:00,
2013-05-29 18:52:00,50.0,41.0,-100.00,SW,214,3.0,20.0,71,-99.99,,,0.68,301.000000,,2013-05-30 01:52:00,
2013-05-29 19:01:00,50.0,41.0,-100.00,SW,214,3.0,20.0,71,-99.99,,,0.68,301.000000,,2013-05-30 02:01:00,
2013-05-29 19:11:00,50.0,41.0,-100.00,SW,214,3.0,20.0,71,-99.99,,,0.68,301.000000,,2013-05-30 02:11:00,
2013-05-29 20:01:00,46.0,43.0,-100.00,SSW,210,2.0,9.0,88,0.01,,,0.69,131.000000,,2013-05-30 03:01:00,
2013-05-29 20:11:00,46.0,43.0,-100.00,SSW,210,2.0,9.0,88,0.01,,,0.69,131.000000,,2013-05-30 03:11:00,
2013-05-29 20:33:00,44.0,43.0,-100.00,SSW,209,0.0,7.0,96,0.04,,,0.73,46.000000,,2013-05-30 03:33:00,
2013-05-29 20:43:00,44.0,43.0,-100.00,SSW,209,0.0,7.0,96,0.04,,,0.73,46.000000,,2013-05-30 03:43:00,
2013-05-29 20:53:00,44.0,43.0,-100.00,SSW,209,0.0,7.0,96,0.04,,,0.73,46.000000,,2013-05-30 03:53:00,
2013-05-29 21:02:00,44.0,43.0,-100.00,SSW,209,0.0,7.0,96,0.04,,,0.73,46.000000,,2013-05-30 04:02:00,
2013-05-29 21:12:00,44.0,43.0,-100.00,SSW,209,0.0,7.0,96,0.04,,,0.73,46.000000,,2013-05-30 04:12:00,
2013-05-29 21:33:00,43.0,43.0,-100.00,SSW,192,2.0,4.0,99,0.03,,,0.76,3.000000,,2013-05-30 04:33:00,
2013-05-29 21:42:00,43.0,43.0,-100.00,SSW,192,2.0,4.0,99,0.03,,,0.76,3.000000,,2013-05-30 04:42:00,
2013-05-29 21:53:00,43.0,43.0,-100.00,SSW,192,2.0,4.0,99,0.03,,,0.76,3.000000,,2013-05-30 04:53:00,
2013-05-29 22:02:00,43.0,43.0,-100.00,SSW,192,2.0,4.0,99,0.03,,,0.76,3.000000,,2013-05-30 05:02:00,
2013-05-29 22:12:00,43.0,43.0,-100.00,SSW,192,2.0,4.0,99,0.03,,,0.76,3.000000,,2013-05-30 05:12:00,
2013-05-29 22:32:00,41.0,39.0,-100.00,SW,226,9.0,19.0,94,0.03,,,0.79,0.000000,,2013-05-30 05:32:00,
2013-05-29 22:43:00,41.0,39.0,-100.00,SW,226,9.0,19.0,94,0.03,,,0.79,0.000000,,2013-05-30 05:43:00,
2013-05-29 22:52:00,41.0,39.0,-100.00,SW,226,9.0,19.0,94,0.03,,,0.79,0.000000,,2013-05-30 05:52:00,
2013-05-29 23:01:00,41.0,39.0,-100.00,SW,226,9.0,19.0,94,0.03,,,0.79,0.000000,,2013-05-30 06:01:00,
2013-05-29 23:12:00,41.0,39.0,-100.00,SW,226,9.0,19.0,94,0.03,,,0.79,0.000000,,2013-05-30 06:12:00,
2013-05-29 23:32:00,40.0,38.0,-100.00,SW,223,9.0,20.0,92,0.00,,,0.79,0.000000,,2013-05-30 06:32:00,
2013-05-29 23:42:00,40.0,38.0,-100.00,SW,223,9.0,20.0,92,0.00,,,0.79,0.000000,,2013-05-30 06:42:00,
2013-05-29 23:52:00,40.0,38.0,-100.00,SW,223,9.0,20.0,92,0.00,,,0.79,0.000000,,2013-05-30 06:52:00,